Puebla, Mexico

9:20 AM CST on February 08, 2016 (GMT -0600)
Hermanos Serdan International

Weather History for MMPB - August, 2014

Change the Weather History Date:

Thursday, August 28, 2014

  Actual Average Record
Temperature  
Mean Temperature 64 °F -  
Max Temperature 79 °F 71 °F 79 °F (2014)
Min Temperature 48 °F 52 °F 35 °F (2001)
Degree Days  
Heating Degree Days 2    
Growing Degree Days 14 (Base 50)    
Moisture  
Dew Point 46 °F    
Average Humidity 50    
Maximum Humidity 93    
Minimum Humidity 16    
Precipitation  
Precipitation 0.00 in - - ()
Sea Level Pressure  
Sea Level Pressure 30.15 in    
Wind  
Wind Speed 4 mph ()    
Max Wind Speed 10 mph    
Max Gust Speed -    
Visibility 7.7 miles    
Events      
Averages and records for this station are not official NWS values.
T = Trace of Precipitation, MM = Missing Value Source: Averaged Metar Reports

Daily Weather History Graph

Daily Weather History Graph

Search for Another Location

Airport or City:

Trip Planner

Search our weather history database for the weather conditions in past years. The results will help you decide how hot, cold, wet, or windy it might be!

Date:

Astronomy

Aug. 28, 2014 Rise Set
Actual Time 7:17 AM CDT 7:50 PM CDT
Civil Twilight 6:54 AM CDT 8:12 PM CDT
Nautical Twilight 6:28 AM CDT 8:38 PM CDT
Astronomical Twilight 6:02 AM CDT 9:05 PM CDT
Moon 9:41 AM CDT (8/28) 9:47 PM CDT (8/28)
Length of Visible Light 13h 18m
Length of Day
12h 33m
Waxing Crescent, 9% of the Moon is Illuminated
Aug 28
Waxing Crescent
Sep 2
First Quarter
Sep 8
Full
Sep 15
Last Quarter
Sep 24
New

Hourly Weather History & Observations

Time (CDT) Temp. Dew Point Humidity Pressure Visibility Wind Dir Wind Speed Gust Speed Precip Events Conditions
12:42 AM 59.0 °F 53.6 °F 82% 30.39 in 8.0 mi North 4.6 mph - N/A   Overcast
12:50 AM 62 °F 53 °F 63% 29.77 in 3 mi Calm Calm - -   Scattered Clouds
1:47 AM 57.2 °F 51.8 °F 82% 30.38 in 8.0 mi North 4.6 mph - N/A   Overcast
3:50 AM 59 °F 51 °F 68% 29.80 in 3 mi Calm Calm - -   Partly Cloudy
6:12 AM 48.2 °F 46.4 °F 93% 30.34 in 10.0 mi NNW 6.9 mph - N/A   Clear
6:50 AM 56 °F 40 °F 44% 29.85 in 3 mi Calm Calm - -   Clear
6:54 AM 48.2 °F 44.6 °F 87% 30.33 in 10.0 mi NNW 8.1 mph - N/A   Clear
7:45 AM 48.2 °F 42.8 °F 82% 30.33 in 10.0 mi NNW 10.4 mph - N/A   Clear
8:52 AM 57.2 °F 44.6 °F 63% 30.36 in 10.0 mi North 6.9 mph - N/A   Scattered Clouds
9:40 AM 62.6 °F 48.2 °F 59% 30.36 in 10.0 mi North 10.4 mph - N/A   Scattered Clouds
9:50 AM 63 °F 41 °F 33% 29.91 in 6 mi Calm Calm - -   Clear
10:53 AM 68.0 °F 50.0 °F 52% 30.36 in 8.0 mi ENE 8.1 mph - N/A   Scattered Clouds
11:45 AM 69.8 °F 48.2 °F 46% 30.35 in 8.0 mi NE 9.2 mph - N/A   Scattered Clouds
12:43 PM 73.4 °F 44.6 °F 36% 30.34 in 8.0 mi NNE 8.1 mph - N/A   Scattered Clouds
12:50 PM 73 °F 38 °F 18% 29.86 in 12 mi ENE 2.2 mph - -   Scattered Clouds
1:47 PM 75.2 °F 42.8 °F 31% 30.32 in 8.0 mi North 4.6 mph - N/A   Scattered Clouds
2:40 PM 75.2 °F 46.4 °F 36% 30.39 in 8.0 mi NE 8.1 mph - N/A   Mostly Cloudy
3:40 PM 76 °F 39 °F 16% 29.73 in 3 mi East 2.2 mph - -   Haze
3:40 PM 77.0 °F 42.8 °F 29% 30.26 in 8.0 mi East 5.8 mph - N/A   Mostly Cloudy
4:40 PM 78.8 °F 41.0 °F 26% 30.24 in 8.0 mi Calm Calm - N/A   Mostly Cloudy
5:52 PM 78.8 °F 42.8 °F 28% 30.19 in 8.0 mi Calm Calm - N/A   Mostly Cloudy
6:40 PM 76 °F 40 °F 17% 29.62 in 12 mi SSE 2.2 mph - -   Partly Cloudy
6:58 PM 71.6 °F 55.4 °F 57% 30.22 in 8.0 mi SSW 10.4 mph - N/A   Mostly Cloudy
7:40 PM 69.8 °F 57.2 °F 64% 30.23 in 8.0 mi SE 8.1 mph - N/A   Mostly Cloudy
8:42 PM 66.2 °F 53.6 °F 64% 30.26 in 8.0 mi Calm Calm - N/A   Mostly Cloudy
9:56 PM 71 °F 43 °F 25% 29.60 in 3 mi Calm Calm - -   Mostly Cloudy